Windsor, Ontario

7:40 PM EST on February 07, 2016 (GMT -0500)
Windsor

Weather History for CYQG - October, 2012

Change the Weather History Date:

Tuesday, October 9, 2012

  Actual Average Record
Temperature  
Mean Temperature 50 °F -  
Max Temperature 61 °F 56 °F 80 °F (2011)
Min Temperature 39 °F 40 °F 37 °F (2000)
Degree Days  
Heating Degree Days 15    
Moisture  
Dew Point 39 °F    
Average Humidity 66    
Maximum Humidity 94    
Minimum Humidity 42    
Precipitation  
Precipitation 0.00 in 0.08 in - ()
Sea Level Pressure  
Sea Level Pressure 30.05 in    
Wind  
Wind Speed 7 mph ()    
Max Wind Speed 20 mph    
Max Gust Speed 25 mph    
Visibility 14.8 miles    
Events      
Averages and records for this station are not official NWS values.
T = Trace of Precipitation, MM = Missing Value Source: Averaged Metar Reports

Daily Weather History Graph

Daily Weather History Graph

Search for Another Location

Airport or City:

Trip Planner

Search our weather history database for the weather conditions in past years. The results will help you decide how hot, cold, wet, or windy it might be!

Date:

Astronomy

Oct. 09, 2012 Rise Set
Actual Time 7:38 AM EDT 6:58 PM EDT
Civil Twilight 7:10 AM EDT 7:27 PM EDT
Nautical Twilight 6:37 AM EDT 7:59 PM EDT
Astronomical Twilight 6:05 AM EDT 8:31 PM EDT
Moon 1:07 AM EDT (10/9) 3:31 PM EDT (10/9)
Length of Visible Light 12h 16m
Length of Day
11h 20m
Last Quarter, 37% of the Moon is Illuminated
Oct 9
Last Quarter
Oct 15
New
Oct 21
First Quarter
Oct 29
Full
Nov 6
Last Quarter

Hourly Weather History & Observations

Time (EDT) Temp. Windchill Dew Point Humidity Pressure Visibility Wind Dir Wind Speed Gust Speed Precip Events Conditions
12:00 AM 44.6 °F 43.1 °F 33.8 °F 66% 30.15 in 15.0 mi SSW 3.5 mph - N/A   Clear
1:00 AM 42.8 °F 40.1 °F 32.0 °F 66% 30.14 in 15.0 mi South 4.6 mph - N/A   Clear
2:00 AM 41.0 °F 37.1 °F 33.8 °F 76% 30.14 in 15.0 mi South 5.8 mph - N/A   Clear
3:00 AM 42.8 °F 39.3 °F 35.6 °F 76% 30.13 in 15.0 mi South 5.8 mph - N/A   Clear
4:00 AM 44.6 °F 40.7 °F 37.4 °F 76% 30.12 in 15.0 mi SSW 6.9 mph - N/A   Clear
5:00 AM 44.6 °F 40.7 °F 39.2 °F 81% 30.12 in 15.0 mi SSW 6.9 mph - N/A   Clear
6:00 AM 41.0 °F 37.1 °F 37.4 °F 87% 30.12 in 15.0 mi South 5.8 mph - N/A   Clear
7:00 AM 41.0 °F 39.0 °F 37.4 °F 87% 30.13 in 15.0 mi South 3.5 mph - N/A   Scattered Clouds
8:00 AM 41 °F - 40 °F 92% 30.13 in 12 mi SSW 2.3 mph - -   Scattered Clouds
8:00 AM 41.0 °F - 39.2 °F 93% 30.13 in 12.0 mi SSW 2.3 mph - N/A   Mostly Cloudy
9:00 AM 46.4 °F 41.1 °F 42.8 °F 87% 30.12 in 15.0 mi SSW 11.5 mph - N/A   Mostly Cloudy
10:00 AM 50.0 °F - 41.0 °F 71% 30.12 in 15.0 mi SW 15.0 mph - N/A   Scattered Clouds
11:00 AM 51.8 °F - 39.2 °F 62% 30.11 in 15.0 mi SSW 12.7 mph - N/A   Partly Cloudy
12:00 PM 55.4 °F - 41.0 °F 58% 30.09 in 15.0 mi South 12.7 mph 19.6 mph N/A   Partly Cloudy
1:00 PM 55.4 °F - 39.2 °F 54% 30.07 in 15.0 mi SSW 13.8 mph 20.7 mph N/A   Partly Cloudy
2:00 PM 58 °F - 57 °F 94% 30.03 in 15 mi SSW 16.1 mph - -   Scattered Clouds
2:00 PM 59.0 °F - 39.2 °F 48% 30.03 in 15.0 mi SSW 17.3 mph 24.2 mph N/A   Partly Cloudy
3:00 PM 59.0 °F - 37.4 °F 45% 30.00 in 15.0 mi SSW 19.6 mph 25.3 mph N/A   Mostly Cloudy
4:00 PM 60.8 °F - 37.4 °F 42% 29.98 in 15.0 mi South 13.8 mph 20.7 mph N/A   Overcast
5:00 PM 60.8 °F - 37.4 °F 42% 29.95 in 15.0 mi SW 16.1 mph 23.0 mph N/A   Overcast
6:00 PM 59.0 °F - 37.4 °F 45% 29.94 in 15.0 mi SSW 12.7 mph 18.4 mph N/A   Mostly Cloudy
7:00 PM 57.2 °F - 39.2 °F 51% 29.93 in 15.0 mi South 6.9 mph - N/A   Overcast
8:00 PM 56 °F - 40 °F 43% 29.93 in 15 mi South 8.1 mph - -   Overcast
8:00 PM 55.4 °F - 39.2 °F 54% 29.93 in 15.0 mi South 8.1 mph - N/A   Overcast
9:00 PM 55.4 °F - 41.0 °F 58% 29.93 in 15.0 mi SSW 9.2 mph - N/A   Overcast
10:00 PM 55.4 °F - 41.0 °F 58% 29.92 in 15.0 mi SSW 9.2 mph - N/A   Scattered Clouds
11:00 PM 53.6 °F - 41.0 °F 62% 29.89 in 15.0 mi South 9.2 mph - N/A   Scattered Clouds